ROT297H LROP-LBSF

Flight info

Callsign ROT297H
Flight time 0h 39m
Altitude 26000
Route POLUN DCT TIMUR N181 GOL
Aircraft A320/M-SDE3FGHIRWY/LB1

Departure

Time 2026-04-30 13:17
Airport Bucharest Henri Coandă International Airport (LROP)

Arrival

Time 2026-04-30 13:57
Airport Sofia Airport (LBSF)
Time Latitude Longitude Altitude Speed Heading
2026-04-30 13:06 44.56881 26.08119 321 ft 0 kts 174°
2026-04-30 13:13 44.56863 26.08122 323 ft 10 kts 174°
2026-04-30 13:13 44.56817 26.08230 323 ft 7 kts 64°
2026-04-30 13:14 44.56840 26.08293 323 ft 8 kts 63°
2026-04-30 13:14 44.56878 26.08388 323 ft 12 kts 51°
2026-04-30 13:14 44.56963 26.08543 322 ft 11 kts 357°
2026-04-30 13:15 44.57050 26.08531 323 ft 16 kts 353°
2026-04-30 13:15 44.57294 26.08496 323 ft 19 kts 354°
2026-04-30 13:15 44.57426 26.08477 323 ft 20 kts 354°
2026-04-30 13:16 44.57548 26.08460 323 ft 11 kts 354°
2026-04-30 13:16 44.57572 26.08456 323 ft 5 kts 354°
2026-04-30 13:16 44.57656 26.08468 323 ft 13 kts 40°
2026-04-30 13:17 44.57763 26.09759 325 ft 133 kts 83°
2026-04-30 13:17 44.57866 26.11142 891 ft 139 kts 80°
2026-04-30 13:17 44.58145 26.13707 2495 ft 141 kts 79°
2026-04-30 13:18 44.58248 26.15182 2941 ft 163 kts 80°
2026-04-30 13:18 44.58494 26.18827 3921 ft 212 kts 82°
2026-04-30 13:18 44.58646 26.21007 4502 ft 235 kts 83°
2026-04-30 13:19 44.58810 26.23345 5371 ft 246 kts 83°
2026-04-30 13:19 44.58976 26.25748 6392 ft 249 kts 84°
2026-04-30 13:19 44.59130 26.28228 7241 ft 260 kts 89°
2026-04-30 13:19 44.58764 26.30738 8060 ft 269 kts 116°
2026-04-30 13:20 44.57589 26.32787 8965 ft 274 kts 144°
2026-04-30 13:20 44.55841 26.33845 9890 ft 278 kts 172°
2026-04-30 13:20 44.53919 26.33688 10721 ft 285 kts 197°
2026-04-30 13:20 44.52201 26.32154 11073 ft 307 kts 229°
2026-04-30 13:21 44.51174 26.29455 11619 ft 323 kts 250°
2026-04-30 13:21 44.50505 26.26438 12469 ft 326 kts 251°
2026-04-30 13:21 44.49660 26.23472 13310 ft 329 kts 245°
2026-04-30 13:22 44.47601 26.17713 14948 ft 334 kts 242°
2026-04-30 13:22 44.46482 26.14850 15739 ft 336 kts 241°
2026-04-30 13:22 44.44228 26.09215 17403 ft 336 kts 242°
2026-04-30 13:23 44.43394 26.07134 18024 ft 336 kts 242°
2026-04-30 13:23 44.42555 26.05036 18642 ft 335 kts 242°
2026-04-30 13:24 44.40296 25.99322 20070 ft 336 kts 242°
2026-04-30 13:24 44.38037 25.93614 21475 ft 338 kts 242°
2026-04-30 13:25 44.35733 25.87801 22868 ft 341 kts 242°
2026-04-30 13:25 44.33429 25.81987 24106 ft 344 kts 242°
2026-04-30 13:26 44.29922 25.73180 25735 ft 346 kts 242°
2026-04-30 13:26 44.27584 25.67322 26398 ft 346 kts 242°
2026-04-30 13:27 44.25257 25.61501 27423 ft 347 kts 243°
2026-04-30 13:28 44.21712 25.52656 28286 ft 340 kts 243°
2026-04-30 13:28 44.19334 25.46737 28296 ft 361 kts 243°
2026-04-30 13:28 44.18093 25.43652 28292 ft 367 kts 243°
2026-04-30 13:29 44.13058 25.31165 28291 ft 370 kts 243°
2026-04-30 13:31 44.06725 25.15564 28286 ft 371 kts 242°
2026-04-30 13:32 44.00812 25.01028 28284 ft 371 kts 242°
2026-04-30 13:33 43.95722 24.88586 28282 ft 370 kts 242°
2026-04-30 13:33 43.93256 24.82609 28302 ft 340 kts 242°
2026-04-30 13:34 43.92094 24.79791 28300 ft 333 kts 242°
2026-04-30 13:35 43.87537 24.68728 28309 ft 330 kts 242°
2026-04-30 13:36 43.82981 24.57709 28298 ft 330 kts 242°
2026-04-30 13:36 43.79320 24.49648 28306 ft 335 kts 228°
2026-04-30 13:37 43.77346 24.47851 28303 ft 350 kts 210°
2026-04-30 13:37 43.72548 24.46128 27735 ft 358 kts 202°
2026-04-30 13:38 43.67688 24.44604 26380 ft 357 kts 201°
2026-04-30 13:38 43.65253 24.43845 25742 ft 358 kts 201°
2026-04-30 13:38 43.60461 24.42131 24640 ft 354 kts 203°
2026-04-30 13:39 43.55756 24.40209 23508 ft 351 kts 203°
2026-04-30 13:39 43.51103 24.38313 22358 ft 347 kts 202°
2026-04-30 13:40 43.48758 24.37379 21774 ft 345 kts 202°
2026-04-30 13:40 43.46484 24.36483 21231 ft 343 kts 202°
2026-04-30 13:40 43.44191 24.35585 20706 ft 342 kts 202°
2026-04-30 13:40 43.41910 24.34693 20206 ft 340 kts 202°
2026-04-30 13:41 43.39676 24.33703 19769 ft 335 kts 206°
2026-04-30 13:41 43.37496 24.32557 19528 ft 336 kts 207°
2026-04-30 13:41 43.35339 24.31379 19107 ft 332 kts 207°
2026-04-30 13:41 43.33197 24.30188 18620 ft 331 kts 207°
2026-04-30 13:42 43.31072 24.28999 18070 ft 329 kts 207°
2026-04-30 13:42 43.28958 24.27824 17547 ft 327 kts 207°
2026-04-30 13:42 43.24754 24.25512 16510 ft 324 kts 206°
2026-04-30 13:43 43.22658 24.24365 16179 ft 325 kts 206°
2026-04-30 13:43 43.20564 24.23223 15787 ft 324 kts 206°
2026-04-30 13:43 43.18472 24.22087 15412 ft 323 kts 206°
2026-04-30 13:43 43.16381 24.20951 15040 ft 322 kts 206°
2026-04-30 13:44 43.14302 24.19820 14717 ft 321 kts 206°
2026-04-30 13:44 43.12228 24.18692 14454 ft 320 kts 206°
2026-04-30 13:44 43.10160 24.17570 14216 ft 320 kts 206°
2026-04-30 13:44 43.08091 24.16447 13954 ft 319 kts 206°
2026-04-30 13:45 43.03943 24.14196 13424 ft 319 kts 206°
2026-04-30 13:45 43.01906 24.13093 13147 ft 318 kts 205°
2026-04-30 13:45 42.99827 24.11969 12865 ft 317 kts 205°
2026-04-30 13:46 42.97804 24.10873 12609 ft 316 kts 205°
2026-04-30 13:46 42.95735 24.09754 12336 ft 315 kts 205°
2026-04-30 13:46 42.93699 24.08654 12072 ft 315 kts 205°
2026-04-30 13:46 42.91691 24.07566 11824 ft 315 kts 205°
2026-04-30 13:47 42.89660 24.06469 11558 ft 313 kts 205°
2026-04-30 13:47 42.87635 24.05377 11225 ft 313 kts 205°
2026-04-30 13:47 42.85586 24.04273 10835 ft 312 kts 205°
2026-04-30 13:47 42.83600 24.03207 10471 ft 311 kts 205°
2026-04-30 13:48 42.81573 24.02128 10101 ft 306 kts 205°
2026-04-30 13:48 42.79606 24.01075 9694 ft 301 kts 204°
2026-04-30 13:48 42.77672 24.00039 9351 ft 294 kts 204°
2026-04-30 13:48 42.75852 23.98970 9088 ft 282 kts 215°
2026-04-30 13:49 42.74391 23.97288 8737 ft 273 kts 235°
2026-04-30 13:49 42.73468 23.95047 8352 ft 268 kts 249°
2026-04-30 13:49 42.72706 23.92738 7957 ft 268 kts 249°
2026-04-30 13:49 42.71940 23.90436 7804 ft 263 kts 250°
2026-04-30 13:50 42.71200 23.88220 7670 ft 253 kts 248°
2026-04-30 13:50 42.69788 23.84015 7406 ft 234 kts 251°
2026-04-30 13:50 42.69126 23.82046 7292 ft 223 kts 249°
2026-04-30 13:51 42.68496 23.80174 7176 ft 219 kts 250°
2026-04-30 13:51 42.67866 23.78281 6862 ft 217 kts 252°
2026-04-30 13:51 42.67538 23.76327 6614 ft 212 kts 272°
2026-04-30 13:51 42.67625 23.74338 6333 ft 208 kts 278°
2026-04-30 13:52 42.67750 23.72380 6055 ft 207 kts 280°
2026-04-30 13:52 42.67874 23.70439 5765 ft 205 kts 280°
2026-04-30 13:52 42.67992 23.68531 5480 ft 201 kts 281°
2026-04-30 13:52 42.68112 23.66644 5211 ft 200 kts 280°
2026-04-30 13:53 42.68228 23.64783 4975 ft 196 kts 280°
2026-04-30 13:53 42.68341 23.62969 4682 ft 189 kts 279°
2026-04-30 13:53 42.68448 23.61237 4409 ft 180 kts 278°
2026-04-30 13:53 42.68552 23.59569 4162 ft 175 kts 279°
2026-04-30 13:54 42.68654 23.57930 3907 ft 172 kts 278°
2026-04-30 13:54 42.68750 23.56370 3620 ft 159 kts 277°
2026-04-30 13:54 42.68837 23.54950 3371 ft 142 kts 277°
2026-04-30 13:54 42.68917 23.53657 3169 ft 132 kts 277°
2026-04-30 13:55 42.68993 23.52432 2998 ft 129 kts 276°
2026-04-30 13:55 42.69068 23.51219 2845 ft 129 kts 277°
2026-04-30 13:55 42.69143 23.49996 2697 ft 130 kts 278°
2026-04-30 13:55 42.69217 23.48777 2537 ft 130 kts 276°
2026-04-30 13:56 42.69290 23.47543 2369 ft 132 kts 277°
2026-04-30 13:56 42.69366 23.46297 2220 ft 133 kts 278°
2026-04-30 13:56 42.69442 23.45046 2024 ft 133 kts 277°
2026-04-30 13:56 42.69525 23.43796 1832 ft 132 kts 277°
2026-04-30 13:57 42.69593 23.42698 1752 ft 98 kts 274°
2026-04-30 13:57 42.69637 23.41972 1748 ft 57 kts 274°
2026-04-30 13:57 42.69612 23.41665 1753 ft 12 kts 247°
2026-04-30 13:57 42.69581 23.41558 1752 ft 12 kts 246°
2026-04-30 13:58 42.69572 23.41530 1751 ft 0 kts 245°
2026-04-30 13:58 42.69565 23.41510 1753 ft 2 kts 244°
2026-04-30 13:58 42.69559 23.41493 1746 ft 5 kts 244°
2026-04-30 13:59 42.69530 23.41410 1749 ft 13 kts 245°
2026-04-30 13:59 42.69499 23.41312 1750 ft 9 kts 249°
2026-04-30 13:59 42.69482 23.41251 1745 ft 5 kts 244°
2026-04-30 13:59 42.69432 23.41212 1753 ft 14 kts 191°
2026-04-30 14:00 42.69353 23.41187 1749 ft 10 kts 191°
2026-04-30 14:00 42.69252 23.41160 1753 ft 11 kts 192°
2026-04-30 14:00 42.69190 23.41142 1745 ft 7 kts 192°
2026-04-30 14:01 42.69152 23.41129 1753 ft 4 kts 200°
2026-04-30 14:01 42.69118 23.41125 1753 ft 4 kts 163°
2026-04-30 14:01 42.69089 23.41138 1750 ft 3 kts 162°
2026-04-30 14:01 42.69081 23.41141 1749 ft 2 kts 160°
2026-04-30 14:02 42.69059 23.41151 1753 ft 0 kts 163°